Weather History for KMLI - January, 2013

Change the Weather History Date:

Saturday, January 19, 2013

  Actual Average Record
Temperature  
Mean Temperature 37 °F 22 °F  
Max Temperature 52 °F 31 °F 58 °F (2006)
Min Temperature 22 °F 14 °F -23 °F (1994)
Degree Days  
Heating Degree Days 28 43  
Month to date heating degree days 732 806  
Since 1 July heating degree days 3078 3227  
Cooling Degree Days 0 0  
Month to date cooling degree days 0 0  
Year to date cooling degree days 0 0  
Moisture  
Dew Point 28 °F    
Average Humidity 60    
Maximum Humidity 76    
Minimum Humidity 44    
Precipitation  
Precipitation 0.00 in 0.04 in 1.51 in (1995)
Month to date precipitation 0.74 0.94  
Year to date precipitation 0.74 0.94  
Snow  
Snow 0.00 in 0.30 in - ()
Month to date snowfall 1.6 5.8  
Since 1 July snowfall 6.9 16.3  
Snow Depth 0.00 in    
Sea Level Pressure  
Sea Level Pressure 29.91 in    
Wind  
Wind Speed 15 mph (WSW)    
Max Wind Speed 33 mph    
Max Gust Speed 52 mph    
Visibility 10 miles    
Events      
T = Trace of Precipitation, MM = Missing Value Source: NWS Daily Summary

Daily Weather History Graph

Daily Weather History Graph

Search for Another Location

Airport or City:

Trip Planner

Search our weather history database for the weather conditions in past years. The results will help you decide how hot, cold, wet, or windy it might be!

Date:

Astronomy

Jan. 19, 2013 Rise Set
Actual Time 7:23 AM CST 5:02 PM CST
Civil Twilight 6:53 AM CST 5:32 PM CST
Nautical Twilight 6:19 AM CST 6:06 PM CST
Astronomical Twilight 5:46 AM CST 6:39 PM CST
Moon 11:29 AM CST (1/19) 12:57 AM CST (1/19)
Length of Visible Light 10h 39m
Length of Day
9h 38m
First Quarter, 57% of the Moon is Illuminated
Jan 19
First Quarter
Jan 26
Full
Feb 3
Last Quarter
Feb 10
New
Feb 17
First Quarter

Hourly Weather History & Observations

Time (CST) Temp. Windchill Dew Point Humidity Pressure Visibility Wind Dir Wind Speed Gust Speed Precip Events Conditions
12:52 AM 41.0 °F 34.3 °F 30.0 °F 65% 29.93 in 10.0 mi SW 11.5 mph - N/A   Clear
1:52 AM 41.0 °F 34.7 °F 30.0 °F 65% 29.94 in 10.0 mi SW 10.4 mph - N/A   Clear
2:52 AM 39.9 °F 35.1 °F 30.0 °F 68% 29.93 in 10.0 mi WSW 6.9 mph - N/A   Clear
3:52 AM 39.0 °F 32.3 °F 30.0 °F 70% 29.91 in 10.0 mi SSW 10.4 mph - N/A   Clear
4:52 AM 39.0 °F 31.8 °F 30.0 °F 70% 29.88 in 10.0 mi SW 11.5 mph - N/A   Clear
5:52 AM 37.9 °F 32.7 °F 28.9 °F 70% 29.89 in 10.0 mi SW 6.9 mph - N/A   Clear
6:52 AM 37.9 °F 33.5 °F 30.0 °F 73% 29.87 in 10.0 mi SSW 5.8 mph - N/A   Clear
7:52 AM 39.0 °F 32.8 °F 30.0 °F 70% 29.87 in 10.0 mi SW 9.2 mph - N/A   Clear
8:52 AM 41.0 °F 34.3 °F 30.9 °F 67% 29.87 in 10.0 mi WSW 11.5 mph - N/A   Clear
9:52 AM 45.0 °F 37.9 °F 33.1 °F 63% 29.87 in 10.0 mi SW 16.1 mph - N/A   Clear
10:52 AM 45.0 °F 36.9 °F 32.0 °F 60% 29.85 in 10.0 mi WSW 20.7 mph 27.6 mph N/A   Clear
11:52 AM 46.0 °F 40.2 °F 33.1 °F 61% 29.81 in 10.0 mi WSW 12.7 mph - N/A   Partly Cloudy
12:52 PM 48.9 °F - 34.0 °F 56% 29.80 in 10.0 mi WSW 18.4 mph 27.6 mph N/A   Clear
1:52 PM 50.0 °F - 33.1 °F 52% 29.79 in 10.0 mi WSW 15.0 mph 25.3 mph N/A   Clear
2:52 PM 52.0 °F - 33.1 °F 49% 29.79 in 10.0 mi WSW 13.8 mph - N/A   Clear
3:52 PM 51.1 °F - 30.9 °F 46% 29.82 in 10.0 mi West 18.4 mph - N/A   Clear
4:52 PM 48.0 °F - 30.9 °F 52% 29.84 in 10.0 mi West 16.1 mph - N/A   Clear
5:52 PM 45.0 °F 37.9 °F 32.0 °F 60% 29.89 in 10.0 mi West 16.1 mph 23.0 mph N/A   Clear
6:52 PM 44.1 °F 36.8 °F 30.9 °F 60% 29.91 in 10.0 mi West 16.1 mph - N/A   Clear
7:52 PM 43.0 °F 34.0 °F 30.0 °F 60% 29.95 in 10.0 mi WNW 21.9 mph 33.4 mph N/A   Scattered Clouds
8:52 PM 39.0 °F 28.5 °F 25.0 °F 57% 29.98 in 10.0 mi WNW 23.0 mph 43.7 mph N/A   Partly Cloudy
9:52 PM 30.0 °F 17.5 °F 19.9 °F 66% 30.06 in 10.0 mi NW 19.6 mph 35.7 mph N/A   Clear
10:52 PM 25.0 °F 9.5 °F 9.0 °F 51% 30.10 in 10.0 mi NW 24.2 mph 38.0 mph N/A   Clear
11:52 PM 21.9 °F 4.8 °F 8.1 °F 55% 30.14 in 10.0 mi NW 26.5 mph 36.8 mph N/A   Clear